| time (UTC) | temp F | wind direction | speed MPH | gust MPH | rain 1hr in | rain 24hr in | rain mn in | humidity % | barometer mb |
| 20260505052708 | 37 | 0 | 0.0 | 0.0 | 0.00 | 0.18 | 0.18 | 89 | 1013.1 |
| 20260505051808 | 37 | 0 | 0.0 | 0.0 | 0.00 | 0.18 | 0.18 | 89 | 1013.1 |
| 20260505050929 | 37 | 0 | 0.0 | 0.0 | 0.00 | 0.18 | 0.18 | 89 | 1013.1 |
| 20260505040908 | 38 | 0 | 0.0 | 0.0 | 0.01 | 0.18 | 0.18 | 89 | 1013.3 |
| 20260505040008 | 38 | 0 | 0.0 | 0.0 | 0.02 | 0.18 | 0.18 | 88 | 1013.3 |
| 20260505035408 | 38 | 0 | 0.0 | 0.0 | 0.03 | 0.18 | 0.18 | 88 | 1013.3 |
| 20260505034508 | 38 | 234 | 0.0 | 2.0 | 0.07 | 0.18 | 0.18 | 88 | 1013.3 |
| 20260505033608 | 38 | 234 | 0.0 | 1.0 | 0.11 | 0.18 | 0.18 | 88 | 1013.3 |
| 20260505032708 | 38 | 0 | 0.0 | 0.0 | 0.15 | 0.18 | 0.18 | 88 | 1013.3 |
| 20260505031808 | 38 | 0 | 0.0 | 0.0 | 0.18 | 0.18 | 0.18 | 88 | 1013.3 |
| 20260505030908 | 38 | 0 | 0.0 | 0.0 | 0.17 | 0.17 | 0.17 | 87 | 1013.3 |
| 20260505030029 | 38 | 234 | 0.0 | 2.0 | 0.16 | 0.16 | 0.17 | 86 | 1012.1 |
| 20260505025429 | 39 | 234 | 0.0 | 2.0 | 0.15 | 0.15 | 0.15 | 86 | 1012.1 |
| 20260505024529 | 40 | 234 | 0.0 | 1.0 | 0.11 | 0.11 | 0.11 | 86 | 1012.1 |
| 20260505023608 | 41 | 0 | 0.0 | 0.0 | 0.07 | 0.07 | 0.07 | 86 | 1012.1 |
| 20260505022710 | 42 | 0 | 0.0 | 0.0 | 0.03 | 0.03 | 0.03 | 84 | 1012.1 |
| 20260505021808 | 43 | 234 | 1.0 | 5.0 | 0.00 | 0.00 | 0.00 | 79 | 1012.1 |
| 20260505020908 | 45 | 241 | 1.0 | 5.0 | 0.00 | 0.00 | 0.00 | 70 | 1012.1 |
| 20260505020008 | 45 | 270 | 0.0 | 4.0 | 0.00 | 0.00 | 0.00 | 69 | 1011.4 |
| 20260505015408 | 45 | 202 | 0.0 | 2.0 | 0.00 | 0.00 | 0.00 | 69 | 1011.4 |
| 20260505014507 | 45 | 210 | 1.0 | 3.0 | 0.00 | 0.00 | 0.00 | 68 | 1011.4 |
| 20260505013607 | 45 | 216 | 1.0 | 3.0 | 0.00 | 0.00 | 0.00 | 67 | 1011.4 |
| 20260505012707 | 46 | 195 | 1.0 | 4.0 | 0.00 | 0.00 | 0.00 | 66 | 1011.4 |
| 20260505011808 | 46 | 187 | 1.0 | 3.0 | 0.00 | 0.00 | 0.00 | 66 | 1011.4 |
| 20260505010907 | 46 | 187 | 0.0 | 3.0 | 0.00 | 0.00 | 0.00 | 64 | 1011.4 |
| 20260505010007 | 46 | 184 | 1.0 | 3.0 | 0.00 | 0.00 | 0.00 | 64 | 1011.6 |
| 20260505005407 | 46 | 178 | 1.0 | 5.0 | 0.00 | 0.00 | 0.00 | 63 | 1011.6 |
| 20260505004509 | 47 | 174 | 0.0 | 3.0 | 0.00 | 0.00 | 0.00 | 63 | 1011.6 |
| 20260505003607 | 48 | 118 | 3.0 | 9.0 | 0.00 | 0.00 | 0.00 | 60 | 1011.6 |
| 20260505002707 | 49 | 116 | 3.0 | 6.0 | 0.00 | 0.00 | 0.00 | 59 | 1011.6 |
| 20260505001807 | 48 | 111 | 2.0 | 7.0 | 0.00 | 0.00 | 0.00 | 58 | 1011.6 |
| 20260505000907 | 49 | 119 | 3.0 | 10.0 | 0.00 | 0.00 | 0.00 | 56 | 1011.6 |
| 20260505000009 | 49 | 101 | 2.0 | 6.0 | 0.00 | 0.00 | 0.00 | 56 | 1011.7 |
| 20260504235407 | 49 | 101 | 3.0 | 6.0 | 0.00 | 0.00 | 0.00 | 55 | 1011.7 |
| 20260504234528 | 49 | 116 | 4.0 | 10.0 | 0.00 | 0.00 | 0.00 | 54 | 1010.8 |
| 20260504233607 | 50 | 96 | 2.0 | 6.0 | 0.00 | 0.00 | 0.00 | 56 | 1010.8 |
| 20260504232709 | 50 | 84 | 2.0 | 6.0 | 0.00 | 0.00 | 0.00 | 54 | 1010.8 |
| 20260504231807 | 50 | 93 | 3.0 | 6.0 | 0.00 | 0.00 | 0.00 | 53 | 1010.8 |
| 20260504230907 | 50 | 85 | 1.0 | 7.0 | 0.00 | 0.00 | 0.00 | 53 | 1010.8 |
| 20260504230007 | 50 | 107 | 4.0 | 11.0 | 0.00 | 0.00 | 0.00 | 52 | 1010.8 |
| 20260504225407 | 51 | 104 | 5.0 | 14.0 | 0.00 | 0.00 | 0.00 | 49 | 1010.8 |
| 20260504224528 | 53 | 114 | 3.0 | 9.0 | 0.00 | 0.00 | 0.00 | 46 | 1010.6 |
| 20260504223607 | 54 | 139 | 3.0 | 11.0 | 0.00 | 0.00 | 0.00 | 42 | 1010.6 |
| 20260504222707 | 56 | 225 | 1.0 | 4.0 | 0.00 | 0.00 | 0.00 | 40 | 1010.6 |
| 20260504221807 | 56 | 281 | 1.0 | 5.0 | 0.00 | 0.00 | 0.00 | 39 | 1010.6 |
| 20260504220906 | 56 | 263 | 2.0 | 6.0 | 0.00 | 0.00 | 0.00 | 37 | 1010.6 |
| 20260504220007 | 57 | 268 | 2.0 | 8.0 | 0.00 | 0.00 | 0.00 | 40 | 1010.6 |
| 20260504215407 | 57 | 274 | 3.0 | 9.0 | 0.00 | 0.00 | 0.00 | 40 | 1010.6 |
| 20260504214506 | 56 | 260 | 4.0 | 12.0 | 0.00 | 0.00 | 0.00 | 39 | 1010.2 |
| 20260504213628 | 59 | 274 | 4.0 | 10.0 | 0.00 | 0.00 | 0.00 | 35 | 1010.2 |
| 20260504212706 | 60 | 1 | 2.0 | 7.0 | 0.00 | 0.00 | 0.00 | 33 | 1010.2 |
| 20260504211827 | 59 | 36 | 4.0 | 11.0 | 0.00 | 0.00 | 0.00 | 34 | 1010.2 |
| 20260504210907 | 61 | 98 | 4.0 | 11.0 | 0.00 | 0.00 | 0.00 | 29 | 1010.2 |
| 20260504210007 | 62 | 36 | 2.0 | 9.0 | 0.00 | 0.00 | 0.00 | 29 | 1010.2 |
| 20260504205407 | 62 | 8 | 1.0 | 8.0 | 0.00 | 0.00 | 0.00 | 33 | 1010.2 |
| 20260504204506 | 60 | 38 | 2.0 | 10.0 | 0.00 | 0.00 | 0.00 | 33 | 1011.6 |
| 20260504203607 | 62 | 66 | 3.0 | 10.0 | 0.00 | 0.00 | 0.00 | 34 | 1011.6 |
| 20260504202707 | 60 | 53 | 2.0 | 7.0 | 0.00 | 0.00 | 0.00 | 36 | 1011.6 |
| 20260504201806 | 59 | 31 | 4.0 | 12.0 | 0.00 | 0.00 | 0.00 | 36 | 1011.6 |
| 20260504200907 | 58 | 78 | 2.0 | 5.0 | 0.00 | 0.00 | 0.00 | 40 | 1011.6 |
| 20260504200027 | 57 | 34 | 3.0 | 7.0 | 0.00 | 0.00 | 0.00 | 44 | 1011.6 |
| 20260504195406 | 56 | 304 | 2.0 | 7.0 | 0.00 | 0.00 | 0.00 | 41 | 1011.6 |
| 20260504194506 | 56 | 26 | 3.0 | 12.0 | 0.00 | 0.00 | 0.00 | 42 | 1012.3 |
| 20260504193627 | 53 | 327 | 2.0 | 12.0 | 0.00 | 0.00 | 0.00 | 47 | 1012.3 |
| 20260504192706 | 54 | 273 | 3.0 | 9.0 | 0.00 | 0.00 | 0.00 | 47 | 1012.3 |
| 20260504191808 | 56 | 291 | 2.0 | 7.0 | 0.00 | 0.00 | 0.00 | 46 | 1012.3 |
| 20260504190906 | 54 | 281 | 3.0 | 9.0 | 0.00 | 0.00 | 0.00 | 44 | 1012.3 |
| 20260504190027 | 53 | 284 | 2.0 | 7.0 | 0.00 | 0.00 | 0.00 | 44 | 1012.3 |
| 20260504185406 | 53 | 279 | 2.0 | 7.0 | 0.00 | 0.00 | 0.00 | 42 | 1012.3 |
| 20260504184528 | 54 | 286 | 3.0 | 9.0 | 0.00 | 0.00 | 0.00 | 43 | 1012.3 |
| 20260504183627 | 55 | 288 | 3.0 | 9.0 | 0.00 | 0.00 | 0.00 | 40 | 1012.3 |
| 20260504182706 | 56 | 269 | 3.0 | 9.0 | 0.00 | 0.00 | 0.00 | 40 | 1012.3 |
| 20260504181806 | 57 | 257 | 3.0 | 12.0 | 0.00 | 0.00 | 0.00 | 37 | 1012.3 |
| 20260504180927 | 57 | 288 | 3.0 | 11.0 | 0.00 | 0.00 | 0.00 | 37 | 1012.3 |
| 20260504180006 | 57 | 301 | 2.0 | 6.0 | 0.00 | 0.00 | 0.00 | 39 | 1012.3 |
| 20260504175406 | 55 | 275 | 2.0 | 7.0 | 0.00 | 0.00 | 0.00 | 39 | 1012.3 |
| 20260504174506 | 55 | 281 | 2.0 | 6.0 | 0.00 | 0.00 | 0.00 | 40 | 1014.1 |
| 20260504173627 | 55 | 272 | 2.0 | 5.0 | 0.00 | 0.00 | 0.00 | 36 | 1014.1 |
| 20260504172706 | 56 | 282 | 3.0 | 8.0 | 0.00 | 0.00 | 0.00 | 37 | 1014.1 |
| 20260504171805 | 56 | 352 | 2.0 | 8.0 | 0.00 | 0.00 | 0.00 | 35 | 1014.1 |
| 20260504170927 | 55 | 180 | 1.0 | 8.0 | 0.00 | 0.00 | 0.00 | 36 | 1014.1 |
| 20260504150905 | 39 | 0 | 0.0 | 0.0 | 0.00 | 0.00 | 0.00 | 75 | 1014.1 |
| 20260504140905 | 33 | 0 | 0.0 | 0.0 | 0.00 | 0.00 | 0.00 | 75 | 1014.1 |
| 20260504081809 | 32 | 0 | 0.0 | 0.0 | 0.00 | 0.00 | 0.00 | 70 | 1015.1 |
| 20260504080909 | 32 | 0 | 0.0 | 0.0 | 0.00 | 0.00 | 0.00 | 71 | 1015.1 |